Wetterdaten: Mrz 2016
Datum Temp Feuchte Luftdruck Regen Wind Richtung Sonnenschein UV Solar Windben
01.03.2016 -0,2 C 86 % 1013,9 hPa 4,4 l/m 5,8 km/h S 6,75 h 1,5 UV-I 220 W/m 9,7 km/h
02.03.2016 3,0 C 90 % 997,9 hPa 5,0 l/m 12,1 km/h S 1,08 h 0,9 UV-I 105 W/m 22,5 km/h
03.03.2016 3,3 C 82 % 1002,2 hPa 0,0 l/m 0,4 km/h S 3,67 h 1,1 UV-I 196 W/m 3,6 km/h
04.03.2016 2,5 C 88 % 996,8 hPa 0,8 l/m 16,9 km/h S-SO 0,83 h 0,8 UV-I 102 W/m 28,6 km/h
05.03.2016 2,7 C 96 % 995,8 hPa 6,0 l/m 0,0 km/h N-NW 0,00 h 0,7 UV-I 56 W/m 0,8 km/h
06.03.2016 1,2 C 90 % 999,3 hPa 0,0 l/m 0,1 km/h W-NW 2,92 h 1,1 UV-I 171 W/m 2,0 km/h
07.03.2016 1,6 C 88 % 1005,7 hPa 0,6 l/m 0,0 km/h W-SW 1,00 h 1,1 UV-I 160 W/m 0,0 km/h
08.03.2016 0,6 C 90 % 1015,2 hPa 0,0 l/m 0,2 km/h S-SW 2,00 h 1,1 UV-I 165 W/m 2,8 km/h
09.03.2016 2,7 C 75 % 1010,1 hPa 0,0 l/m 8,2 km/h S-SO 7,83 h 1,5 UV-I 292 W/m 18,1 km/h
10.03.2016 3,1 C 85 % 1021,3 hPa 0,0 l/m 0,3 km/h NO 3,67 h 1,2 UV-I 184 W/m 4,8 km/h
11.03.2016 2,1 C 88 % 1028,5 hPa 0,0 l/m 2,0 km/h N-NO 6,33 h 1,6 UV-I 293 W/m 7,6 km/h
12.03.2016 1,6 C 84 % 1031,9 hPa 0,0 l/m 0,6 km/h N-NO 0,00 h 1,0 UV-I 81 W/m 4,8 km/h
13.03.2016 1,1 C 85 % 1035,2 hPa 0,0 l/m 2,4 km/h NO 3,83 h 1,5 UV-I 213 W/m 14,9 km/h
14.03.2016 2,4 C 73 % 1031,9 hPa 0,0 l/m 1,9 km/h O 8,92 h 1,9 UV-I 341 W/m 7,3 km/h
15.03.2016 4,1 C 81 % 1026,9 hPa 0,0 l/m 3,7 km/h N-NO 2,17 h 1,1 UV-I 146 W/m 8,9 km/h
16.03.2016 3,7 C 72 % 1030,0 hPa 0,0 l/m 3,6 km/h NO 2,83 h 1,2 UV-I 186 W/m 11,7 km/h
17.03.2016 3,9 C 76 % 1026,2 hPa 0,0 l/m 0,6 km/h O-SO 9,00 h 1,7 UV-I 347 W/m 2,4 km/h
18.03.2016 2,1 C 97 % 1021,2 hPa 0,4 l/m 0,9 km/h W-SW 0,00 h 0,7 UV-I 63 W/m 6,0 km/h
19.03.2016 3,6 C 93 % 1020,8 hPa 0,4 l/m 2,2 km/h W-NW 0,00 h 0,7 UV-I 57 W/m 8,9 km/h
20.03.2016 4,7 C 96 % 1017,6 hPa 1,6 l/m 2,2 km/h NW 0,00 h 0,8 UV-I 78 W/m 10,9 km/h
21.03.2016 5,0 C 92 % 1016,0 hPa 6,2 l/m 4,1 km/h NW 0,42 h 1,1 UV-I 89 W/m 18,1 km/h
22.03.2016 5,1 C 96 % 1011,7 hPa 3,8 l/m 3,6 km/h NW 0,08 h 1,0 UV-I 89 W/m 16,1 km/h
23.03.2016 5,6 C 84 % 1010,7 hPa 1,6 l/m 1,5 km/h N-NW 1,00 h 1,1 UV-I 132 W/m 8,1 km/h
24.03.2016 4,8 C 90 % 1013,5 hPa 0,4 l/m 0,0 km/h W 2,42 h 1,3 UV-I 165 W/m 0,0 km/h
25.03.2016 5,9 C 96 % 1012,5 hPa 14,4 l/m 1,0 km/h S-SW 0,00 h 0,7 UV-I 72 W/m 7,3 km/h
26.03.2016 8,7 C 81 % 1014,2 hPa 0,0 l/m 15,9 km/h S-SO 9,25 h 2,0 UV-I 377 W/m 23,0 km/h
27.03.2016 6,8 C 84 % 1008,1 hPa 5,2 l/m 6,8 km/h S 1,00 h 1,1 UV-I 122 W/m 15,3 km/h
28.03.2016 6,7 C 83 % 1000,2 hPa 5,4 l/m 17,9 km/h S-SO 0,83 h 1,1 UV-I 125 W/m 31,0 km/h
29.03.2016 5,2 C 88 % 1007,4 hPa 2,6 l/m 5,1 km/h S-SW 1,92 h 1,2 UV-I 167 W/m 12,9 km/h
30.03.2016 8,1 C 78 % 1009,1 hPa 2,4 l/m 5,6 km/h S 3,67 h 1,6 UV-I 223 W/m 14,5 km/h
31.03.2016 5,9 C 82 % 1013,1 hPa 2,8 l/m 0,5 km/h N-NO 0,00 h 1,1 UV-I 136 W/m 2,4 km/h
Min-Datum 01.03.16 14.03.16 05.03.16 18 Tage 01.03.16 - - - - 01.03.16
Min-Zeit 07:15 14:50 03:30 - 00:00 - - - - 00:00
Minimum -6,9 C 42 % 993,6 hPa - 0,0 km/h - - - - 0,0 km/h
Max-Datum 17.03.16 19.03.16 13.03.16 25.03.16 28.03.16 - 26.03.16 13.03.16 13.03.16 28.03.16
Max-Zeit 15:15 08:35 10:15 02:55 12:15 - 17:10 12:20 13:20 13:25
Maximum 12,7 C 99 % 1036,3 hPa 14,4 l/m 46,9 km/h
S-SO
- 9,17 h 3,5 UV-I 886 W/m 70,8 km/h
S-SO
Durchschnitt 3,8 C 86 % 1014,4 hPa #64,0 l/m 4,1 km/h S #83:25 h 1,2 UV-I 166 W/m 10,5 km/h

Durchschnitt Minimum Temp.0,8 C
Durchschnitt Maximum Temp.7,2 C